BLUE RING PATHFINDER (62720 NORAD) Tracking and Keplerian Element Data

This shows tracking and keplerian element data for the satellite.

Feedback or suggestion? Click here.




ElementValue
Catalog62720
NameBLUE RING PATHFINDER
Epoch Orbit69
Epoch Day34.30692175
Epoch Year2025
RAAN29.0122
Inclination30.0082
Eccentricity0.4887734
Argument of Perigee279.8442
Mean Anonmoly30.2804
Mean Motion3.84316601
Decay Rate-7.7E-07
L11 62720U 25011A 25034.30692175 -.00000077 00000+0 00000+0 0 9996
L22 62720 30.0082 29.0122 4887734 279.8442 30.2804 3.84316601 699



Live tracking and technical data element details for BLUE RING PATHFINDER (NORAD 62720). BLUE RING PATHFINDER can be tracked NOW for your location showing map with azimuth and elevation plus other details from your city location.







IsCatalogInMostPopularTable: catalog: 62720, numindb: 10
Update: records affected: 1



GetName: 62720 BLUE RING PATHFINDER

Hit Count: updated at: Sun, 09 Feb 2025 14:33:09 GMT